sat.trackr.live / text

‹ back to catalog

STARLINK-4352

NORAD 53047 · 2022-077E

PAYLOAD ACTIVE UNKNOWN

§ Identity

Operator
Country
US
Launch date
2022-07-11
Launch site
AFWTR
Launch vehicle
Mass (kg)
RCS (m²)

Purposes: comms

External: N2YO · Heavens-Above · Gunter

§ Orbital elements

Epoch: 2026-05-24T23:19:38.482752Z

Period
95.64 min
Inclination
97.4484°
Eccentricity
0.0001205
Mean motion
15.05657425 rev/d
Perigee alt
548.7 km
Apogee alt
550.3 km
Semi-major
6,927.6 km
B*
-3.5374e-5
RAAN
324.9302°
Arg perigee
167.0433°
Mean anomaly
193.0826°
Rev number
21,239

§ Raw data

STARLINK-43521 53047U 22077E   26144.97197318 -.00000569  00000+0 -35374-4 0  99962 53047  97.4484 324.9302 0001205 167.0433 193.0826 15.05657425212398

JSON: /api/v1/satellites/53047 · /tle

For live sub-satellite position, see the globe view (requires WebGL).

§ Visibility from observer

Set your observer location to see the next 7 days of passes ≥ 10°. The values pass through the URL so the page stays shareable.

No JS? Fill the form by hand. The geolocation button needs JavaScript.